ENVISAT

Satellite information

Favourite Embed

Satellite Type and Status

PAYLOADIN ORBIT

Key statistics

Satellite ENVISAT at a glance.

Uptime

8689

Days in orbit

Revolutions

≈ 14.4

Per day

Orbit

SSO

Sun Synchronous Orbit

Inclination

98.4

Latest

Satellite identification and parameters

Extended collection of information and parameters for ENVISAT.

Object identification

Identified? True

Debris? False

Object name: ENVISAT

International designator: 2002-009A

Object number (NORAD): 27386

Object ID (CCSDS): 27386

Country: EUROPEAN SPACE AGENCY (ESA)

Current information (Y/N): Y

RCS size: LARGE

Orbital parameters

Period: 100.07 minutes

Inclination: 98.3601 deg

SMA: 7139.942 km

Apoapsis: 762.615 km

Periapsis: 761.0 km

RAAN: 298.3406 deg

Eccentricy: 0.00011315

Argument of periapsis: 83.1589 deg

Mean anomaly: 90.1955 deg

Mean motion: 14.38999682 rev/day

Mean motion (dot): 0.00000218 rev/day2

B* drag term: 0.000084536435 1/REarth

Two-line elements (TLE)

Creation date: Dec. 14, 2025, 3:07 a.m.

Reference frame: TEME

Reference center: EARTH

Epoch: Dec. 13, 2025, 2:56 p.m. UTC

TLE line 0: 0 ENVISAT

TLE line 1: 1 27386U 02009A 25347.62250859 .00000218 00000-0 84536-4 0 9996

TLE line 2: 2 27386 98.3601 298.3406 0001132 83.1589 90.1955 14.38999682246794

Live tracking on map

Real-time ground track for satellite ENVISAT.

In-orbit conjunctions

There are no conjunctions computed for ENVISAT, at the moment. Check back to stay up to date, as we update our databases every day.

Go to all conjunctions

Associated space launch

A large Earth-Observing satellite in sun synchronous polar orbit.

ENVISAT was lifted into orbit during the mission ‘Ariane 5 G | Envisat’, on board a Ariane 5 G space rocket.

The launch took place on March 1, 2002, 1:07 a.m. from Ariane Launch Area 3.

For more information about the launch, click the button.

Launch to space Ariane 5 G | Envisat
Ariane 5 G | Envisat

Agency: N/A

Status: Launch Successful

Launch date: March 1, 2002, 1:07 a.m. UTC

Rocket: Ariane 5 G

Launch pad: Ariane Launch Area 3

Location: Guiana Space Centre, French Guiana

...

Latest news about this satellite

There are no fresh news available about this satellite. Check back as we update our databases every day.


Newsletter sign-up

Weekly statistics, charts and insights to help you stay on top of the space industry.